Flag for United Arab Emirates Weather past 2 weeks in Umm al-Quwain, Umm al-Quwain, United Arab Emirates

Now
73 °F

Clear.


Feels Like: 77 °F
Forecast: 67 / 74 °F
Wind: 6 mph from Northwest

Location: Sharjah International Airport

Current Time: Dec 20, 2014 at 8:11:22 PM

Latest Report: Dec 20, 2014 at 7:00 PM


Visibility: 10 mi

Pressure: 30.07 "Hg

Humidity: 57%

Dew point: 57 °F

Location of Umm al-QuwainLocation

Historic Weather in Umm al-Quwain — Graph

°F

Umm al-Quwain temperature yesterday

Maximum temperature yesterday: 79 °F (at 1:00 PM)
Minimum temperature yesterday: 57 °F (at 6:00 AM)
Average temperature yesterday: 69 °F

Past Weeks' High & Low Weather Summary

 TemperatureHumidityPressure
High88 °F (Dec 6, 2:00 PM)94% (Dec 12, 6:00 AM)30.21 "Hg (Dec 12, 6:00 AM)
Low55 °F (Dec 15, 8:00 AM)13% (Dec 6, 2:00 PM)29.98 "Hg (Dec 11, 3:00 PM)
Average70 °F53%30.09 "Hg
* Reported Dec 5 7:00 PM — Dec 20 7:00 PM, Umm al-Quwain, Weather by CustomWeather, © 2014

Note: Actual official high and low records may vary slightly from our data, if they occured in-between our weather recording intervals... More about our weather records

Advertising

Umm al-Quwain weather history for previous 24 hours

 ConditionsComfort  
Time TempWeatherWind HumidityBarometerVisibility
7:00 PM
Dec 20
73 °FClear.6 mph57%30.07 "Hg10 mi
6:00 PM73 °FClear.8 mph57%30.07 "Hg10 mi
5:00 PM75 °FSunny.9 mph54%30.07 "Hg10 mi
4:00 PM77 °FSunny.12 mph51%30.07 "Hg10 mi
3:00 PM77 °FPassing clouds.13 mph51%30.07 "HgN/A
2:00 PM79 °FSunny.10 mph45%30.07 "Hg10 mi
1:00 PM79 °FSunny.2 mph42%30.09 "Hg10 mi
12:00 PM79 °FSunny.2 mph45%30.15 "Hg10 mi
11:00 AM75 °FPassing clouds.5 mph50%30.18 "HgN/A
10:00 AM73 °FSunny.2 mph53%30.18 "Hg10 mi
9:00 AM66 °FPassing clouds.3 mph68%30.18 "HgN/A
8:00 AM61 °FClear.2 mph77%30.15 "Hg5 mi
7:00 AM61 °FSunny.3 mph77%30.15 "Hg10 mi
6:00 AM59 °FClear.3 mph82%30.12 "Hg10 mi
5:00 AM59 °FClear.2 mph77%30.12 "Hg10 mi
4:00 AM61 °FClear.2 mph72%30.12 "Hg10 mi
3:00 AM63 °FClear.2 mph73%30.15 "Hg10 mi
2:00 AM63 °FClear.1 mph73%30.15 "Hg10 mi
1:00 AM64 °FClear.2 mph73%30.12 "Hg10 mi
12:00 AM66 °FClear.No wind68%30.15 "Hg10 mi
11:00 PM
Dec 19
66 °FClear.No wind60%30.15 "Hg10 mi
10:00 PM68 °FClear.1 mph60%30.18 "Hg10 mi
9:00 PM70 °FClear.2 mph57%30.18 "Hg10 mi
8:00 PM70 °FClear.3 mph53%30.15 "Hg10 mi
Weather by CustomWeather, © 2014

See weather overviewHow to use our weather pages